TimeEDT,TemperatureF,Dew PointF,Humidity,Sea Level PressureIn,VisibilityMPH,Wind Direction,Wind SpeedMPH,Gust SpeedMPH,PrecipitationIn,Events,Conditions,WindDirDegrees,DateUTC
12:53 AM,68.0,62.1,81,30.12,10.0,Calm,Calm,-,N/A,,Clear,0,2013-08-22 04:53:00
1:53 AM,64.9,62.1,90,30.12,10.0,Calm,Calm,-,N/A,,Clear,0,2013-08-22 05:53:00
2:53 AM,64.0,61.0,90,30.10,10.0,SSE,3.5,-,N/A,,Clear,160,2013-08-22 06:53:00
3:53 AM,63.0,60.1,90,30.09,10.0,Calm,Calm,-,N/A,,Clear,0,2013-08-22 07:53:00
4:53 AM,62.1,60.1,93,30.10,8.0,Calm,Calm,-,N/A,,Scattered Clouds,0,2013-08-22 08:53:00
5:53 AM,62.1,59.0,90,30.09,8.0,SSE,3.5,-,N/A,,Clear,150,2013-08-22 09:53:00
6:53 AM,62.1,60.1,93,30.09,5.0,Calm,Calm,-,N/A,,Clear,0,2013-08-22 10:53:00
7:53 AM,64.9,62.1,90,30.10,10.0,South,3.5,-,N/A,,Clear,170,2013-08-22 11:53:00
8:53 AM,66.9,63.0,87,30.10,10.0,SSW,6.9,-,N/A,,Clear,210,2013-08-22 12:53:00
9:11 AM,69.8,64.4,83,30.12,10.0,SSW,3.5,-,N/A,,Partly Cloudy,200,2013-08-22 13:11:00
9:26 AM,69.8,64.4,83,30.12,10.0,South,3.5,-,N/A,,Mostly Cloudy,180,2013-08-22 13:26:00
9:53 AM,72.0,66.0,81,30.10,10.0,Calm,Calm,-,N/A,,Mostly Cloudy,0,2013-08-22 13:53:00
10:53 AM,73.9,66.9,79,30.10,10.0,West,6.9,-,N/A,,Mostly Cloudy,270,2013-08-22 14:53:00
11:20 AM,75.2,66.2,73,30.12,10.0,West,3.5,-,N/A,,Scattered Clouds,260,2013-08-22 15:20:00
11:53 AM,78.1,69.1,74,30.10,10.0,Variable,3.5,-,N/A,,Clear,0,2013-08-22 15:53:00
12:53 PM,81.0,68.0,65,30.09,10.0,NW,6.9,-,N/A,,Mostly Cloudy,320,2013-08-22 16:53:00
1:53 PM,82.9,69.1,63,30.06,10.0,Calm,Calm,-,N/A,,Mostly Cloudy,0,2013-08-22 17:53:00
2:40 PM,82.4,68.0,62,30.06,10.0,WSW,4.6,-,N/A,Thunderstorm,Partly Cloudy,240,2013-08-22 18:40:00
2:53 PM,80.1,69.1,69,30.06,5.0,WNW,9.2,-,0.01,Rain-Thunderstorm,Light Rain,300,2013-08-22 18:53:00
3:12 PM,80.6,69.8,70,30.05,8.0,Calm,Calm,-,0.01,Thunderstorm,Scattered Clouds,0,2013-08-22 19:12:00
3:53 PM,77.0,71.1,82,30.05,1.8,West,3.5,-,0.04,Rain-Thunderstorm,Thunderstorms and Rain,280,2013-08-22 19:53:00
3:59 PM,77.0,69.8,78,30.06,3.0,Calm,Calm,-,0.01,Rain-Thunderstorm,Light Rain,0,2013-08-22 19:59:00
4:19 PM,77.0,69.8,78,30.06,7.0,WSW,5.8,-,0.01,Thunderstorm,Scattered Clouds,240,2013-08-22 20:19:00
4:32 PM,73.4,66.2,78,30.05,1.2,West,5.8,-,0.07,Rain-Thunderstorm,Light Rain,270,2013-08-22 20:32:00
4:40 PM,71.6,66.2,83,30.05,0.5,SW,3.5,-,0.13,Rain-Thunderstorm,Heavy Rain,220,2013-08-22 20:40:00
4:44 PM,71.6,66.2,83,30.05,1.5,WSW,3.5,-,0.13,Rain-Thunderstorm,Light Rain,240,2013-08-22 20:44:00
4:47 PM,71.6,66.2,83,30.05,3.0,WSW,3.5,-,0.13,Rain-Thunderstorm,Light Rain,240,2013-08-22 20:47:00
4:53 PM,72.0,66.9,84,30.05,7.0,West,6.9,-,0.13,Thunderstorm,Overcast,280,2013-08-22 20:53:00
4:59 PM,71.6,66.2,83,30.05,1.5,West,10.4,16.1,0.07,Rain-Thunderstorm,Heavy Thunderstorms and Rain,260,2013-08-22 20:59:00
5:02 PM,71.6,66.2,83,30.05,0.8,WSW,11.5,-,0.13,Rain-Thunderstorm,Heavy Thunderstorms and Rain,250,2013-08-22 21:02:00
5:12 PM,69.8,66.2,88,30.04,1.5,WSW,5.8,-,0.19,Rain-Thunderstorm,Rain,240,2013-08-22 21:12:00
5:16 PM,69.8,66.2,88,30.05,3.0,WSW,8.1,-,0.19,Rain-Thunderstorm,Light Rain,240,2013-08-22 21:16:00
5:32 PM,73.4,68.0,83,30.04,8.0,Calm,Calm,-,0.19,,Scattered Clouds,0,2013-08-22 21:32:00
5:53 PM,73.0,69.1,87,30.03,6.0,WSW,3.5,-,0.19,,Scattered Clouds,240,2013-08-22 21:53:00
6:53 PM,73.0,69.1,87,30.02,7.0,SW,5.8,-,N/A,,Partly Cloudy,220,2013-08-22 22:53:00
7:53 PM,73.0,69.1,87,30.01,6.0,Calm,Calm,-,N/A,,Clear,0,2013-08-22 23:53:00
8:53 PM,72.0,69.1,91,30.00,4.0,SW,3.5,-,N/A,,Clear,220,2013-08-23 00:53:00
9:53 PM,72.0,69.1,91,30.02,4.0,Calm,Calm,-,N/A,,Clear,0,2013-08-23 01:53:00
10:53 PM,71.1,68.0,90,30.02,3.0,SW,3.5,-,N/A,,Partly Cloudy,230,2013-08-23 02:53:00
11:40 PM,71.6,69.8,94,30.04,2.5,Calm,Calm,-,N/A,,Partly Cloudy,0,2013-08-23 03:40:00
11:53 PM,71.1,69.1,93,30.03,2.5,Calm,Calm,-,N/A,,Scattered Clouds,0,2013-08-23 03:53:00